Время (UTC), дата Ветер
(°,м/с) 
Видим.   Явления Облачность Т
(°С)
Тd
(°С)
f(%) Тe
(°С)
Pmin
(гПа)
dP
(гПа)
Po
(мм)
O2
(г/м3)
Тmin Tmax R s Состояние
почвы
00 01.02.12 тихо ()   >10 км    4/0 средняя 
[Ac lent]
-28.3 -29.4 90 -28  1021.3  758  343  -30.6      22  равномерный
сухой снег
100% 
03 01.02.12 тихо ()   >10 км    1/0 средняя 
[Ac lent]
-16.4 -21.5 65 -16  1020.3  -0.4  757  326           
06 01.02.12 200 (Ю) >10 км    ясно 
-13.4 -20.5 55 -16  1018.7  -1.6  756  322           
09 01.02.12 250 (З) >10 км    3/0 средняя 
[Ac lent]
-18.1 -23.1 65 -21  1018.2  -0.7  756  328    -12.7       
12 01.02.12 тихо ()   >10 км    ясно 
-20.8 -24.8 70 -21  1018.6  0.4  756  331    -12.7       
15 01.02.12 270 (З) >10 км    ясно 
-26.2 -28.1 85 -27  1018  -0.8  755  339           
18 01.02.12 270 (З) >10 км    ясно 
-29.1 -30.3 89 -30  1017.8  -0.4  755  342           
21 01.02.12 тихо ()   >10 км    ясно 
-31.1 -32.2 89 -31  1016.4  -1.4  754  345           
00 02.02.12 270 (З) >10 км    ясно 
-23.2 -25.7 80 -26  1016  -0.2  754  334  -32.4      22  равномерный
сухой снег
100% 
03 02.02.12 180 (Ю) >10 км    ясно 
-14 -21.1 55 -14  1014.4  -1.1  753  321           
06 02.02.12 360 (С) >10 км    1/0 средняя 
[Ac lent]
-11.6 -20 50 -14  1012.9  -1.3  752  318           
09 02.02.12 290 (З) >10 км    1/0 средняя 
[Ac lent]
-15.8 -22.8 55 -21  1013.8  0.7  753  324    -10.3       
12 02.02.12 290 (З) >10 км    1/0 средняя 
[Ac lent]
-16.7 -22.7 60 -17  1014.5  0.7  753  325    -10.3       
15 02.02.12 090 (В) >10 км    10/0 верхняя 
[Cc]
-18.8 -23.7 65 -19  1014.7  753  328           
18 02.02.12 тихо ()   >10 км    10/0 верхняя 
[Cc]
-20.8 -24.8 70 -21  1014.3  -0.4  753  330           
21 02.02.12 тихо ()   >10 км    ясно 
-25.5 -27.3 84 -26  1013.9  -0.6  752  336           
00 03.02.12 тихо ()   >10 км    9/0 средняя, верхняя 
[Ac lent|Cc]
-21.1 -23.6 80 -21  1013.7  752  330  -27.7      22  равномерный
сухой снег
100% 
03 03.02.12 140 (ЮВ) >10 км    3/0 верхняя 
[Cc]
-15.5 -21.5 60 -16  1011.9  -1.6  751  322           
06 03.02.12 230 (ЮЗ) >10 км    9/0 верхняя 
[Cc]
-12.9 -20.1 55 -17  1009.8  -2.1  750  319           
09 03.02.12 250 (З) >10 км    9/0 средняя, верхняя 
[Ac lent|Cc]
-16.6 -22.6 60 -17  1010.2  0.4  750  323    -11.8       
12 03.02.12 тихо ()   >10 км    6/0 средняя, верхняя 
[Ac lent|Ci fib]
-20.8 -24.8 70 -21  1010.7  0.3  750  329    -11.8       
15 03.02.12 270 (З) >10 км    1/0 средняя 
[Ac lent]
-20.3 -24.4 70 -25  1009.8  -0.9  749  328           
18 03.02.12 тихо ()   >10 км    4/0 верхняя 
[Ci fib]
-23.7 -26.3 79 -24  1010.1  0.1  750  332           
21 03.02.12 тихо ()   >10 км    ясно 
-29.9 -31.1 90 -30  1010.4  0.1  750  341           
00 04.02.12 250 (З) >10 км    ясно 
-27.8 -29.1 89 -28  1011.6  1.2  751  339  -31.6      22  равномерный
сухой снег
100% 
03 04.02.12 250 (З) >10 км    4/0 средняя 
[Ac trans]
-13 -19.1 60 -15  1010.8  -0.2  750  319           
06 04.02.12 270 (З) >10 км    9/0 средняя 
[Ac trans]
-11.8 -18 60 -16  1010.6  750  317           
09 04.02.12 270 (З) >10 км    4/0 средняя 
[Ac lent]
-12.1 -18.3 60 -16  1011.7  1.1  751  318    -11.2       
12 04.02.12 270 (З) >10 км    1/0 средняя 
[Ac lent]
-14.9 -20.9 60 -17  1013.6  1.7  752  322    -11.2       
15 04.02.12 250 (З) >10 км    3/0 средняя 
[Ac lent]
-16.4 -21.5 65 -20  1014.2  0.6  753  324           
18 04.02.12 250 (З) >10 км    6/0 средняя, верхняя 
[Ac lent|Cc]
-15.3 -20.4 65 -18  1014.9  0.7  753  323           
21 04.02.12 050 (СВ) >10 км    ясно 
-19.8 -23.1 75 -20  1015  -0.1  753  329           
00 05.02.12 050 (СВ) 10 км    6/0 средняя, верхняя 
[Ac lent|Cc]
-21.5 -23.3 85 -22  1015.2  0.2  754  331  -24.5      22  равномерный
сухой снег
100% 
03 05.02.12 110 (В) 10 км    ясно 
-13.7 -18 70 -16  1014.1  -0.9  753  321           
06 05.02.12 250 (З) >10 км    9/0 средняя, верхняя 
[Ac lent|Cc]
-7.2 -15.3 52 -11  1012.6  -1.1  752  313           
09 05.02.12 230 (ЮЗ) >10 км    ясно 
-12.1   1013.8  753      -5.4       
12 05.02.12 тихо ()   >10 км    ясно 
-18.5 -20.4 85 -19  1014.7  0.5  753  327    -5.4       
15 05.02.12 050 (СВ) >10 км    ясно 
-20.2 -22.1 85 -20  1014.5  -0.2  753  329           
18 05.02.12 360 (С) >10 км    ясно 
-21.9 -23.8 85 -22  1014.7  0.2  753  332           
21 05.02.12 020 (С) >10 км    10/0 верхняя 
[Cs]
-20.3 -21.5 90 -21  1014.1  -0.6  753  329           
00 06.02.12 200 (Ю) 10 км    10/0 верхняя 
[Cc]
-21 -26 64 -21  1014.3  0.2  753  330  -23.6      22  равномерный
сухой снег
100% 
03 06.02.12 050 (СВ) >10 км    10/0 средняя 
[Ac As]
-12.7 -16.2 75 -15  1012.7  -1.4  752  319           
06 06.02.12 180 (Ю) 10 км    10/0 средняя, верхняя 
[Ac trans|Cc]
-9.9 -15.2 65 -10  1010.5  -2  750  315           
12 06.02.12 070 (В) 4000 м  слаб. снег  10/0 средняя 
[As trans]
-12.9 -14.9 85 -13  1010.3  -0.4  750  318    -9.8  0.0     
15 06.02.12 тихо ()   4000 м  слаб. снег  10/0 средняя 
[As trans]
-14.1 -15.4 90 -14  1009.5  -0.8  749  320           
18 06.02.12 тихо ()   4000 м  слаб. снег  10/0 средняя 
[As trans]
-15.3 -15.9 95 -15  1008.6  -0.9  749  321           
21 06.02.12 200 (Ю) 4000 м  слаб. снег  10/0 средняя, верхняя 
[Ac As|Cs]
-17.7 -18.3 95 -18  1008.4  -0.4  748  324           
00 07.02.12 тихо ()   2000 м  слаб. снег  10/0 средняя 
[Ac As]
-19.1 -19.7 96 -19  1008.7  0.3  749  326  -21.1    0.5  23  равномерный
сухой снег
100% 
03 07.02.12 020 (С) 10 км    8/1 1000 м средняя, верхняя 
[Cu hum|Ac lent|Ci fib]
-14.2 -16.9 80 -14  1007.9  -0.6  748  319           
06 07.02.12 270 (З) 10 км    9/4 600 м кучево-дожд., средняя, верхняя 
[Cb cap|Ac lent|Ci fib]
-11.7 -16.1 70 -12  1006  -1.7  747  316           
09 07.02.12 290 (З) 10 км    9/1 600 м кучево-дожд., средняя 
[Cb cap|Ac lent]
-15.1 -19.3 70 -17  1007.1  0.9  748  320    -10.6       
12 07.02.12 230 (ЮЗ) 10 км    ясно 
-21.7 -24.2 81 -25  1008  0.7  748  329    -10.6  0.0     
15 07.02.12 270 (З) 10 км    10/0 верхняя 
[Cc]
-23.1 -25 84 -24  1008.5  0.3  748  331           
18 07.02.12 тихо ()   10 км    10/0 верхняя 
[Cc]
-26.4 -28.2 85 -26  1008.5  748  336           
21 07.02.12 тихо ()   10 км    10/0 верхняя 
[Cc]
-29.8 -30.9 90 -30  1008.7  748  340           
00 08.02.12 тихо ()   10 км    3/0 средняя 
[Ac lent]
-27.7 -28.9 89 -28  1009.8  1.1  749  338  -30.1      23  равномерный
сухой снег
100% 
03 08.02.12 160 (Ю) >10 км    ясно 
-16.5 -21.5 65 -17  1009  -0.2  749  323           
06 08.02.12 160 (Ю) >10 км    ясно 
-15.1 -21.1 60 -17  1008.1  -0.9  748  321           
09 08.02.12 тихо ()   >10 км    ясно 
-17.8 -22.8 65 -18  1009.5  1.2  749  325    -14.5       
12 08.02.12 050 (СВ) >10 км    ясно 
-25.9 -27.8 84 -26  1010.7  750  336    -14.5       
15 08.02.12 тихо ()   >10 км    ясно 
-27.6 -28.7 89 -28  1011.7  0.8  751  338           
18 08.02.12 тихо ()   >10 км    ясно 
-31.7 -33.5 84 -32  1012.2  0.5  751  344           
21 08.02.12 тихо ()   >10 км    ясно 
-33.1 -34.2 89 -33  1013  0.5  751  346           
00 09.02.12 тихо ()   >10 км    4/0 средняя, верхняя 
[Ac lent|Ci fib]
-29 -30.1 89 -29  1013.3  0.6  752  341  -34.1      23  равномерный
сухой снег
100% 
03 09.02.12 140 (ЮВ) >10 км    4/0 средняя, верхняя 
[Ac trans|Ci fib]
-16.7 -22.7 60 -19  1012.4  -0.3  752  324           
06 09.02.12 290 (З) >10 км    9/1 1000 м средняя, верхняя 
[Cu hum|Ac lent|Cc]
-13.5 -20.6 55 -18  1011.8  -0.7  751  320           
09 09.02.12 290 (З) >10 км    10/0 средняя 
[Ac As]
-15.2 -19.4 70 -19  1013.4  1.6  752  323    -11.7       
12 09.02.12 320 (СЗ) >10 км    10/0 средняя, верхняя 
[Ac lent|Cs]
-16 +20.2 100 +1  1014.6  1.2  753  317    -11.7       
15 09.02.12 290 (З) >10 км    10/0 верхняя 
[Cs]
-19.6 -23.7 70 -24  1015.3  0.5  754  329           
18 09.02.12 320 (СЗ) >10 км    10/0 верхняя 
[Cs]
-21.1 -24.4 75 -21  1014.8  -0.5  753  331           
21 09.02.12 тихо ()   >10 км    10/0 средняя, верхняя 
[Ac lent|Cs]
-22.3 -24.9 79 -22  1014.9  0.1  753  332           
00 10.02.12 290 (З) >10 км    10/0 средняя, верхняя 
[Ac lent|Cs]
-20.3 -22.9 80 -21  1016  754  330  -24.7      23  равномерный
сухой снег
100% 
03 10.02.12 290 (З) >10 км    10/0 верхняя 
[Cc]
-15.4 -21.4 60 -19  1015.8  754  324           
06 10.02.12 290 (З) >10 км    9/1 1000 м средняя, верхняя 
[Cu hum|Ac lent|Ci fib]
-13.4 -21.6 50 -17  1015.6  -0.2  754  321           
09 10.02.12 290 (З) >10 км    ясно 
-16.8 -22.7 60 -23  1016.6  755  326    -13.4       
12 10.02.12 360 (С) >10 км    ясно 
-20.3 -26.1 60 -21  1018.4  1.6  756  331    -13.4       
15 10.02.12 050 (СВ) >10 км    ясно 
-22.8 -27.6 65 -23  1018.6  756  334           
18 10.02.12 290 (З) >10 км    ясно 
-27.5 -31.4 69 -28  1018.9  0.1  756  341           
21 10.02.12 270 (З) >10 км    ясно 
-25.9 -29.1 74 -29  1018.5  -0.2  756  338           
00 11.02.12 020 (С) >10 км    3/0 верхняя 
[Cc]
-25.1 -28.3 75 -26  1018.9  0.4  756  337  -31.1      23  равномерный
сухой снег
100% 
03 11.02.12 140 (ЮВ) >10 км    9/0 средняя, верхняя 
[Ac As|Cs]
-18.2 -25 55 -18  1017.7  -1  755  328           
06 11.02.12 340 (С) 3{10}  >10 км    6/6 600 м кучево-дожд., средняя, верхняя 
[Cb cap|Ac As|Cs]
-17 -23.9 55 -21  1016.3  -1.2  754  326           
09 11.02.12 320 (СЗ) >10 км    1/0 средняя 
[As trans]
-19.7 -26.5 54 -25  1017.8  1.3  755  330           
12 11.02.12 320 (СЗ) >10 км    ясно 
-22.3 -29 54 -27  1019.2  1.4  756  334           
15 11.02.12 320 (СЗ) >10 км    ясно 
-23.7 -29.4 59 -24  1019.7  0.3  757  336           
18 11.02.12 270 (З) >10 км    ясно 
-25.3 -30.9 60 -32  1020.1  0.4  757  338           
21 11.02.12 270 (З) >10 км    ясно 
-25.6 -30.3 64 -32  1020.3  0.2  757  339           
00 12.02.12 290 (З) >10 км    1/0 средняя 
[Ac trans]
-23.1 -28.8 59 -30  1020.9  0.6  758  335  -27.7      23  равномерный
сухой снег
100% 
03 12.02.12 320 (СЗ) >10 км    ясно 
-16.4 -24.4 50 -21  1020.2  -0.3  757  326           
06 12.02.12 360 (С) 4{10}  >10 км    ясно 
-13.6 -23 45 -18  1020.2  757  323           
09 12.02.12 290 (З) >10 км    ясно 
-17.1 -25.1 50 -22  1022.3  2.1  759  328    -13.1       
12 12.02.12 290 (З) >10 км    ясно 
-21.6 -28.2 55 -22  1022.7  0.2  759  334    -13.1       
15 12.02.12 360 (С) >10 км    ясно 
-23 -28.7 59 -26  1023.9  760  336           
18 12.02.12 250 (З) >10 км    ясно 
-25.8 -30.5 64 -29  1024.6  0.7  760  340           
21 12.02.12 тихо ()   >10 км    ясно 
-32.5 -34.8 80 -33  1024.4  -0.7  760  350           
00 13.02.12 тихо ()   >10 км    ясно 
-25.8 -27.6 85 -26  1024.4  0.5  760  340  -32.5      23  равномерный
сухой снег
100% 
03 13.02.12 140 (ЮВ) >10 км    ясно 
-14.9 -20.9 60 -15  1022.9  1.1  759  325           
06 13.02.12 140 (ЮВ) >10 км    8/0 верхняя 
[Ci]
-9.1 -19.4 43 -9  1019.8  -2.9  757  317           
09 13.02.12 140 (ЮВ) >10 км    10/0 средняя 
[Ac As]
-13.1 -21.3 50 -13  1019.7  -0.3  757  322    -8.8       
12 13.02.12 360 (С) >10 км    10/0 средняя 
[As trans]
-18.2 -23.2 65 -18  1019.9  757  328    -8.8       
15 13.02.12 360 (С) >10 км    4/0 средняя 
[As trans]
-19.3 -22.6 75 -20  1019.9  757  330           
18 13.02.12 тихо ()   >10 км    10/0 верхняя 
[Cs]
-23.9 -25.1 90 -24  1020.2  0.1  757  336           
21 13.02.12 тихо ()   >10 км    ясно 
-25.9 -27.1 91 -26  1019.6  -0.6  757  339           
00 14.02.12 230 (ЮЗ) >10 км    ясно 
-25.1 -26.3 90 -26  1019.6  757  338  -29.2      23  равномерный
сухой снег
100% 
03 14.02.12 230 (ЮЗ) >10 км    3/0 верхняя 
[Cc]
-11.4 -18.7 55 -11  1017  -2  755  319           
06 14.02.12 180 (Ю) >10 км    10/0 верхняя 
[Cc]
-10.1 -18.6 50 -10  1014.4  -2.5  753  317           
09 14.02.12 тихо ()   >10 км    10/0 средняя 
[Ac As]
-13.3 -19.4 60 -13  1014  -0.6  753  320    -9.6       
12 14.02.12 360 (С) >10 км    10/0 средняя 
[Ac As]
-13.7 -18.9 65 -16  1014.3  0.3  753  321    -9.6       
15 14.02.12 340 (С) >10 км    10/0 средняя 
[Ac As]
-13.7 -18.9 65 -17  1014.2  -0.1  753  321           
18 14.02.12 340 (С) >10 км    10/0 средняя, верхняя 
[Ac As|Cs]
-15 -19.2 70 -17  1014.2  753  323           
21 14.02.12 290 (З) >10 км    ясно 
-22.9 -26.9 70 -23  1015.1  0.5  753  333           
00 15.02.12 290 (З) >10 км    3/0 средняя 
[Ac lent]
-20.9 -24.2 75 -21  1015.4  0.5  754  331  -24.4      23  равномерный
сухой снег
100% 
03 15.02.12 290 (З) >10 км    1/0 верхняя 
[Ci fib]
-13.4 -20.5 55 -17  1015.2  754  321           
06 15.02.12 320 (СЗ) >10 км    1/0 средняя 
[Ac cuf]
-11.1 -20.7 45 -11  1014.7  -0.3  753  318           
09 15.02.12 320 (СЗ) >10 км    1/0 средняя 
[Ac lent]
-15.2 -22.2 55 -17  1016.4  1.4  755  324    -10.3       
12 15.02.12 320 (СЗ) >10 км    ясно 
-17.9 -22.9 65 -18  1018.1  1.5  756  327    -10.3       
15 15.02.12 тихо ()   >10 км    ясно 
-22.1 -26.2 69 -22  1018.3  0.2  756  333           
18 15.02.12 230 (ЮЗ) >10 км    ясно 
-26.1 -29.3 74 -27  1018.7  0.2  756  339           
21 15.02.12 тихо ()   >10 км    ясно 
-30.1 -31.9 84 -30  1019.1  0.2  756  344           
00 16.02.12 тихо ()   >10 км    ясно 
-25.9 -27.1 91 -26  1019.5  0.6  757  339  -31.9      22  равномерный
сухой снег
100% 
03 16.02.12 140 (ЮВ) >10 км    1/1 600 м 
[Cu hum]
-15.6 -20.7 65 -16  1018.6  -0.5  756  325           
06 16.02.12 110 (В) >10 км    3/1 1000 м верхняя 
[Cu hum|Cc]
-11.8 -20.1 50 -12  1017.8  -0.6  756  320           
09 16.02.12 110 (В) >10 км    4/0 средняя 
[Ac lent]
-16.5 -23.4 55 -17  1018.2  0.2  756  326    -10.9       
12 16.02.12 340 (С) >10 км    ясно 
-24 -25.9 84 -24  1018.6  756  336    -10.9       
15 16.02.12 тихо ()   >10 км    ясно 
-25.5 -27.7 82 -26  1018.3  -0.3  756  338           
18 16.02.12 250 (З) >10 км    ясно 
-28.2 -30 85 -29  1018.4  -0.1  756  341           
21 16.02.12 тихо ()   >10 км    ясно 
-30.2 -31.3 90 -30  1017.9  -0.5  755  344           
00 17.02.12 110 (В) >10 км    ясно 
-26.8 -28.1 90 -27  1018.3  0.6  756  339  -32.1      22  равномерный
сухой снег
100% 
03 17.02.12 230 (ЮЗ) >10 км    ясно 
-15 -21 60 -15  1017.5  -0.4  755  324           
06 17.02.12 230 (ЮЗ) >10 км    ясно 
-11.9 -19.1 55 -15  1016  -1.3  754  319           
09 17.02.12 160 (Ю) >10 км    ясно 
-12.9 -20.1 55 -13  1016  -0.2  754  320    -11.6       
12 17.02.12 050 (СВ) >10 км    ясно 
-20.7 -24 75 -21  1016.9  0.7  755  331    -11.6       
15 17.02.12 180 (Ю) >10 км    ясно 
-22.8 -24.7 85 -23  1017.1  755  334           
18 17.02.12 180 (Ю) >10 км    ясно 
-27.9 -29.1 89 -29  1017.5  0.2  755  341           
21 17.02.12 090 (В) >10 км    ясно 
-29.8 -30.9 90 -31  1017.9  0.4  755  343           
00 18.02.12 тихо ()   >10 км    ясно 
-22.6 -23.8 90 -23  1018.4  0.7  756  334  -31.3      22  равномерный
сухой снег
100% 
03 18.02.12 180 (Ю) >10 км    ясно 
-12.7 -18.9 60 -13  1017.9  -0.1  756  321           
06 18.02.12 230 (ЮЗ) >10 км    ясно 
-9.6 -17.3 54 -14  1017  -0.7  755  317           
09 18.02.12 230 (ЮЗ) >10 км    1/0 средняя 
[Ac lent]
-11.9 -19.1 55 -15  1017.2  0.2  755  320    -8.7       
12 18.02.12 тихо ()   >10 км    ясно 
-15.6 -19.8 70 -16  1017.9  0.5  756  324    -8.7       
15 18.02.12 тихо ()   >10 км    ясно 
-20.5 -23.1 80 -21  1018.1  756  331           
18 18.02.12 тихо ()   >10 км    ясно 
-23.9 -25.7 85 -24  1018.8  0.5  756  336           
21 18.02.12 тихо ()   >10 км    ясно 
-27.3 -28.5 89 -27  1018.6  -0.2  756  340           
00 19.02.12 090 (В) 10 км    10/0 средняя, верхняя 
[Ac trans|Cs]
-21.8 -22.4 95 -22  1019.1  0.7  756  333  -29.6      22  равномерный
сухой снег
100% 
03 19.02.12 090 (В) >10 км    6/0 верхняя 
[Ci fib]
-15 -18.4 75 -15  1018.5  -0.4  756  324           
06 19.02.12 180 (Ю) >10 км    4/0 средняя, верхняя 
[Ac lent|Ci fib]
-10.1 -15.4 65 -13  1016.6  -1.7  755  317           
09 19.02.12 110 (В) >10 км    6/0 средняя 
[Ac trans]
-11.2 -16.5 65 -11  1016.6  755  319    -9.8       
12 19.02.12 070 (В) >10 км    4/0 средняя 
[Ac lent]
-16.8 -19.4 80 -17  1017.4  0.6  755  326    -9.8       
15 19.02.12 050 (СВ) >10 км    ясно 
-16.8 -18.7 85 -17  1017  -0.4  755  326           
18 19.02.12 050 (СВ) 4000 м  слаб. снег  10/0 средняя 
[As op]
-17 -18.2 90 -17  1016  -1  754  326           
21 19.02.12 050 (СВ) 4000 м  слаб. снег  10/0 верхняя 
[Cs]
-19.5 -20.1 95 -20  1014.7  -1.4  753  328           
00 20.02.12 050 (СВ) 4000 м  дымка{снег}  10/0 средняя 
[Ac As]
-19 -19.6 95 -19  1013  -1.7  752  327  -23.3    0.0  22  равномерный
сухой снег
100% 
03 20.02.12 160 (Ю) 2000 м  снег  10/0 средняя 
[As op]
-15 -16.3 90 -15  1008.4  -4.4  749  321           
06 20.02.12 250 (З) 2000 м  слаб. снег  10/0 средняя 
[As trans]
-12.6 -14.6 85 -13  1007.6  -0.6  748  317           
12 20.02.12 360 (С) 2000 м  слаб. снег  10/0 средняя 
[As op]
-11.5 -14.3 80 -15  1012.1  2.2  752  317    -11.6     
15 20.02.12 360 (С) 10 км  {снег}  6/0 средняя 
[As trans]
-12.4 -15.9 75 -17  1014.4  2.3  753  319           
18 20.02.12 320 (СЗ) 10 км  {снег}  ясно 
-15 -18.4 75 -19  1017.7  755  324           
21 20.02.12 230 (ЮЗ) 10 км    ясно 
-18.6 -21.9 75 -19  1019.8  1.9  757  329           
00 21.02.12 200 (Ю) >10 км    8/0 верхняя 
[Cc]
-18.3 -21.6 75 -21  1021.7  1.9  758  329  -23.5    0.0  23  равномерный
сухой снег
100% 
03 21.02.12 320 (СЗ) >10 км    1/0 верхняя 
[Ci fib]
-10.4 -18.8 50 -13  1021.2  -0.1  758  319           
06 21.02.12 290 (З) >10 км    ясно 
-8.5 -18.3 45 -10  1019.7  -1.5  757  316           
09 21.02.12 290 (З) >10 км  позёмок  ясно 
-12 -20.3 50 -17  1020.4  0.7  758  321    -7.9       
12 21.02.12 270 (З) >10 км    ясно 
-15.7 -21.7 60 -19  1021.6  758  326    -7.9       
15 21.02.12 290 (З) >10 км    ясно 
-16.6 -21.6 65 -20  1021.9  0.3  759  327           
18 21.02.12 тихо ()   >10 км    ясно 
-22.3 -25.6 74 -22  1022.2  0.1  759  335           
21 21.02.12 050 (СВ) >10 км    ясно 
-22.4 -25.6 75 -25  1021.9  -0.3  758  335           
00 22.02.12 050 (СВ) >10 км    ясно 
-22.1 -24.7 80 -22  1022.6  0.7  759  335  -28.1      23  равномерный
сухой снег
100% 
03 22.02.12 тихо ()   >10 км    ясно 
-11.2 -19.6 50 -11  1022  -0.2  759  320           
06 22.02.12 230 (ЮЗ) >10 км    ясно 
-7.2 -18 42 -10  1020  -1.8  758  315           
09 22.02.12 160 (Ю) >10 км    ясно 
-11.1 -20.7 45 -13  1019.9  -0.3  757  320    -6.6       
12 22.02.12 340 (С) >10 км    ясно 
-19.8 -23.9 70 -20  1021.2  0.9  758  331    -6.6       
15 22.02.12 200 (Ю) >10 км    ясно 
-24.1 -26 85 -25  1021.9  0.5  758  337           
18 22.02.12 360 (С) >10 км    ясно 
-22.5 -24.3 85 -25  1021  -0.7  758  334           
21 22.02.12 200 (Ю) >10 км    ясно 
-29.1 -30.3 89 -30  1021.4  758  344           
00 23.02.12 360 (С) >10 км    ясно 
-20.1 -22.7 80 -20  1022.4  1.4  759  332  -30.5      23  равномерный
сухой снег
100% 
03 23.02.12 020 (С) >10 км    ясно 
-11.1 -19.5 50 -11  1021.7  -0.3  759  320           
06 23.02.12 200 (Ю) >10 км    ясно 
-7.2 -18 42 -7  1019.9  -1.6  757  315           
09 23.02.12 180 (Ю) >10 км    ясно 
-10.9 -20.5 45 -13  1020.3  0.2  758  319    -6.8       
12 23.02.12 110 (В) >10 км    ясно 
-14.6 -20.7 60 -18    1.8  759  325    -6.8       
15 23.02.12 360 (С) >10 км    ясно 
-19.6 -24.5 65 -20  1022.9  0.4  759  331           
18 23.02.12 тихо ()   >10 км    ясно 
-22.9 -26.2 74 -23  1023.9  0.8  760  336           
21 23.02.12 050 (СВ) >10 км    ясно 
-26.7 -27.9 90 -27  1024.7  0.8  760  341           
00 24.02.12 070 (В) 10 км    3/0 средняя 
[Ac lent]
-19.6 -21.5 85 -20  1025.3  0.8  761  332  -27.4      23  равномерный
сухой снег
100% 
03 24.02.12 090 (В) >10 км    ясно 
-12.9 -19 60 -13  1024.2  -0.9  760  323           
06 24.02.12 180 (Ю) >10 км    ясно 
-8.5 -16.9 51 -10  1022.4  -1.6  759  317           
09 24.02.12 180 (Ю) >10 км    ясно 
-10.7 -19.1 50 -13  1022.6  0.2  759  320    -7.4       
12 24.02.12 090 (В) >10 км    ясно 
-15.9 -21.9 60 -18  1023.8  760  327    -7.4       
15 24.02.12 050 (СВ) >10 км    5/0 средняя 
[Ac trans]
-17.3 -21.5 70 -17  1023.8  760  329           
18 24.02.12 050 (СВ) >10 км    1/0 средняя 
[Ac lent]
-19 -21.6 80 -19  1023.7  -0.3  760  331           
21 24.02.12 тихо ()   >10 км    8/0 средняя, верхняя 
[Ac lent|Ci fib]
-21.5 -23.3 85 -22  1023.2  -0.5  759  334           
00 25.02.12 050 (СВ) >10 км    9/0 средняя, верхняя 
[Ac trans|Cs]
-18.2 -20.1 85 -18  1023.4  0.2  760  330  -23.7      23  равномерный
сухой снег
100% 
03 25.02.12 070 (В) >10 км    10/0 верхняя 
[Cs]
-11.7 -17 65 -12  1022.2  -0.8  759  321           
06 25.02.12 180 (Ю) >10 км    10/3 1000 м верхняя 
[Cu hum|Ci]
-8.5 -15.6 57 -10  1020.2  -2  758  316           
09 25.02.12 280 (З) >10 км    6/0 средняя, верхняя 
[Ac trans|Ci fib]
-10.5 -16.8 60 -12  1020.2  758  319    -8.2       
12 25.02.12 360 (С) >10 км    8/0 средняя 
[Ac As]
-15.6 -19 75 -16  1020.8  0.4  758  325    -8.2       
15 25.02.12 360 (С) >10 км    10/0 средняя, верхняя 
[Ac As|Cs]
-19 -20.2 90 -19  1020.7  -0.3  758  330           
18 25.02.12 050 (СВ) >10 км    ясно 
-18 -18 100 -21  1020.7  758  328           
21 25.02.12 тихо ()   >10 км    ясно 
-24.6 -25.3 93 -25  1020.9  758  337           
00 26.02.12 тихо ()   >10 км    ясно 
-18.9 -19.5 95 -19  1021.2  0.5  758  330  -26.2      23  равномерный
сухой снег
100% 
03 26.02.12 360 (С) >10 км    3/3 600 м кучево-дожд. 
[Cb cap]
-9.7 -17.5 53 -11  1020.2  -0.5  758  318           
06 26.02.12 360 (С) >10 км    8/5 600 м кучево-дожд., средняя 
[Cb cap|Ac lent]
-8.7 -18.6 44 -10  1019.1  -1.2  757  316           
09 26.02.12 320 (СЗ) >10 км    1/0 средняя 
[Ac lent]
-11.1 -20.7 45 -13  1019.7  0.6  757  320    -8.2       
12 26.02.12 340 (С) >10 км    ясно 
-15.6 -22.6 55 -16  1021.3  1.3  758  326    -8.2       
15 26.02.12 тихо ()   >10 км    ясно 
-21.8 -26.6 65 -22  1021.6  0.2  758  334           
18 26.02.12 тихо ()   >10 км    ясно 
-26.7 -29.9 74 -27  1021.8  758  341           
21 26.02.12 270 (З) >10 км    ясно 
-29.2 -30.3 89 -30  1022  758  344           
00 27.02.12 290 (З) >10 км    3/0 верхняя 
[Cc]
-18.7 -21.3 80 -21  1022.7  1.1  759  330  -30      23  равномерный
сухой снег
100% 
03 27.02.12 340 (С) >10 км    ясно 
-11 -18.3 55 -13  1021.8  -0.5  759  320           
06 27.02.12 250 (З) >10 км    1/0 верхняя 
[Ci fib]
-7.1 -17.8 42 -10  1019.4  -2.2  757  315           
09 27.02.12 230 (ЮЗ) >10 км    1/0 средняя 
[Ac lent]
-10.1 -19.8 45 -13  1019.6  757  318    -6.5       
12 27.02.12 180 (Ю) >10 км    ясно 
-16.5 -21.5 65 -17  1020.4  0.6  758  326    -6.5       
15 27.02.12 090 (В) >10 км    10/0 верхняя 
[Cs]
-16.3 -18.9 80 -19  1020  -0.4  757  326           
18 27.02.12 050 (СВ) >10 км    10/0 верхняя 
[Cs]
-17.5 -19.4 85 -18  1019.6  -0.4  757  327           
21 27.02.12 070 (В) 4000 м  слаб. снег  10/0 средняя 
[As op]
-16.4 -18.3 85 -17  1019.1  -0.5  757  326           
00 28.02.12 070 (В) 2000 м  слаб. снег  10/0 средняя 
[As op]
-15.6 -16.2 95 -16  1018.8  -0.3  756  325  -18.3    0.0  22  равномерный
сухой снег
100% 
03 28.02.12 050 (СВ) 4000 м  слаб. снег  10/0 средняя 
[As op]
-12.2 -14.2 85 -14  1017.4  -1.2  755  320           
06 28.02.12 070 (В) 4000 м  слаб. снег  10/0 средняя 
[As trans]
-9.9 -11.9 85 -10  1016.9  -0.5  755  317           
12 28.02.12 тихо ()   4000 м  дымка{снег}  ясно 
-19.8 -20.4 95 -20  1019.4  757  330    -9.6     
15 28.02.12 020 (С) 4000 м  дымка  3/0 средняя 
[Ac lent]
-23.1 -23.8 94 -24  1020.4  0.8  757  335           
18 28.02.12 270 (З) 4000 м  дымка  ясно 
-26.2 -27.4 90 -27  1021.3  0.9  758  340           
21 28.02.12 тихо ()   4000 м  дымка  10/0 верхняя 
[Cc]
-24.6 -25.3 93 -25  1022.2  0.9  759  338           
00 29.02.12 360 (С) 4000 м  дымка  8/0 верхняя 
[Cc]
-16.4 -17 95 -19  1022.7  0.9  759  327  -26.5      23  равномерный
сухой снег
100% 
03 29.02.12 110 (В) 4000 м  дымка  8/0 верхняя 
[Cc]
-7.7 -11.7 73 -7  1021.2  -1.1  758  316           
06 29.02.12 090 (В) >10 км    10/0 средняя 
[As op]
-4.5 -11 60 -4  1018.6  -2.6  756  311           
09 29.02.12 090 (В) >10 км    10/0 средняя 
[As op]
-5.3 -9.9 70 -7  1017.2  -1.4  755  311    -4       
12 29.02.12 110 (В) 2000 м  снег  10/0 средняя 
[As op]
-6.4 -6.9 96 -6  1017.2  755  312    -4       
15 29.02.12 020 (С) 4000 м  слаб. снег  10/0 средняя 
[As op]
-7.7 -7.5 100 -7  1016.4  -0.8  755  314           
18 29.02.12 270 (З) 4000 м  слаб. снег  10/0 средняя 
[As op]
-8.9 -9.2 98 -9  1016.6  755  315           
21 29.02.12 340 (С) 10 км  в посл. час снег  10/0 верхняя 
[Cs]
-12.4 -13 95 -12  1017  0.4  755  320           
00 01.03.12 270 (З) >10 км  {снег}  10/0 средняя, верхняя 
[Ac trans|Ci fib]
-10.1 -10.7 95 -10  1017.9  0.9  756  317  -16.7    25  равномерный
сухой снег
100% 
03 01.03.12 270 (З) >10 км    3/3 1000 м средняя 
[Cu med, cong|Ac lent]
-4.5 -11 60 -4  1018  0.3  756  311           
06 01.03.12 340 (С) 3{10}  >10 км  позёмок  3/3 600 м кучево-дожд. 
[Cb cap]
-4.6 -14.5 46 -7  1018.1  0.1  756  311           
12 01.03.12 320 (СЗ) >10 км    ясно 
-10.1 -19.8 45 -13  1021.9  1.8  759  319    -2.8       
15 01.03.12 340 (С) >10 км    ясно 
-12.9 -19 60 -13  1023.4  1.3  760  323           
18 01.03.12 320 (СЗ) >10 км    ясно 
-16.2 -20.4 70 -19  1023.7  0.3  760  327           
21 01.03.12 290 (З) >10 км    ясно 
-16.9 -21.9 65 -22  1024.6  0.9  761  328           
00 02.03.12 360 (С) >10 км    ясно 
-14.2 -21.3 55 -18  1025.3  0.7  761  325  -20.6      25  равномерный
сухой снег
100% 
03 02.03.12 340 (С) >10 км    ясно 
-9.5 -19.4 44 -12  1024.9  -0.2  761  319           
06 02.03.12 320 (СЗ) >10 км    ясно 
-7.9 -19.5 39 -11  1024  -0.9  760  317           
09 02.03.12 290 (З) >10 км    ясно 
-11.7 -21.3 45 -15  1024.9  0.9  761  322    -7       
12 02.03.12 320 (СЗ) >10 км    ясно 
-15.8 -23.9 50 -18  1026.3  1.1  762  328    -7       
15 02.03.12 270 (З) >10 км    ясно 
-19.8 -25.6 59 -20  1027.1  0.6  762  333           
18 02.03.12 340 (С) >10 км    ясно 
-18.7 -24.5 60 -21  1027.1  762  331           
21 02.03.12 250 (З) >10 км    ясно 
-25.9 -29.8 70 -26  1028.8  1.5  763  342           
00 03.03.12 360 (С) >10 км    ясно 
-17.1 -23 60 -20  1030  1.6  765  330  -27.9      25  равномерный
сухой снег
100% 
03 03.03.12 360 (С) >10 км    ясно 
-10.7 -20.3 45 -14  1029.7  -0.1  765  322           
06 03.03.12 290 (З) >10 км    ясно 
-8 -19.7 39 -11  1028.9  -0.8  764  319           
09 03.03.12 290 (З) >10 км    ясно 
-9.7 -20.6 41 -13  1029.7  0.8  765  321    -7.1       
12 03.03.12 290 (З) >10 км    ясно 
-15.8 -25 45 -16  1030.7  0.8  765  329    -7.1       
15 03.03.12 180 (Ю) >10 км    ясно 
-22.8 -27.6 65 -23  1031.6  0.5  766  338           
Время (UTC), дата Ветер
(°,м/с) 
Видим.   Явления Облачность Т
(°С)
Тd
(°С)
f(%) Тe
(°С)
Pmin
(гПа)
dP
(гПа)
Po
(мм)
O2
(г/м3)
Тmin Tmax R s Состояние
почвы